Date String (YYYY-MM-DD hh:mm:ss) UTC,Instrument flags,Ambient pressure (hPa),Sample flow (lpm),Bypass flow (lpm),Sample temperature (°C),Ambient temperature (°C),ASC tube jacket temperature (°C),LED temperature (°C),Box temperature (°C),Sample RH (%),Span deviation,Mass concentration (μg/m³),Mass concentration (μg/m³),Mass concentration (μg/m³)
DateTimeUTC,F1_M11,P_M11,Q1_M11,Q2_M11,T1_M11,T2_M11,T3_M11,T4_M11,T5_M11,U1_M11,ZSPAN_M11,X0_M11,X2_M11,X1_M11
2021-11-11 09:00:00,,0828.0,5.00,0.00,22.5,21.8,00.0,31.6,24.3,13.8,0000.0,0009.73,0003.92,0003.40
2021-11-11 09:01:00,,0827.9,5.00,0.00,22.5,21.8,00.0,31.6,24.3,13.9,0000.0,0009.68,0003.92,0003.41
2021-11-11 09:02:00,,0827.9,5.01,0.00,22.5,21.8,00.0,31.6,24.3,13.9,0000.0,0009.62,0003.95,0003.41
2021-11-11 09:03:00,,0827.9,4.99,0.00,22.6,21.8,00.0,31.6,24.3,13.8,0000.0,0009.72,0003.99,0003.41
2021-11-11 09:04:00,,0827.9,5.00,0.00,22.6,21.8,00.0,31.6,24.3,13.8,0000.0,0009.76,0004.04,0003.42
2021-11-11 09:05:00,,0827.9,5.00,0.00,22.6,21.8,00.0,31.6,24.3,13.7,0000.0,0009.43,0004.06,0003.44
2021-11-11 09:06:00,,0827.9,5.01,0.00,22.6,21.8,00.0,31.6,24.3,13.6,0000.0,0009.11,0004.11,0003.44
2021-11-11 09:07:00,,0827.9,5.00,0.00,22.6,21.8,00.0,31.6,24.3,13.6,0000.0,0008.22,0004.14,0003.45
2021-11-11 09:08:00,,0827.8,5.00,0.00,22.5,21.8,00.0,31.6,24.3,13.1,0000.0,0007.99,0004.15,0003.45
2021-11-11 09:09:00,,0827.9,5.00,0.00,22.5,21.8,00.0,31.6,24.3,13.2,0000.0,0008.24,0004.13,0003.44
2021-11-11 09:10:00,,0827.9,5.00,0.00,22.5,21.8,00.0,31.6,24.3,13.5,0000.0,0008.26,0004.10,0003.43
2021-11-11 09:11:00,,0827.9,5.00,0.00,22.5,21.8,00.0,31.6,24.3,13.7,0000.0,0008.28,0004.10,0003.43
2021-11-11 09:12:00,,0827.9,4.98,0.00,22.6,21.8,00.0,31.6,24.3,13.6,0000.0,0008.42,0004.10,0003.42
2021-11-11 09:13:00,,0827.9,5.01,0.00,22.6,21.8,00.0,31.6,24.3,13.6,0000.0,0008.48,0004.09,0003.43
2021-11-11 09:14:00,,0827.9,4.99,0.00,22.6,21.8,00.0,31.6,24.3,13.3,0000.0,0008.56,0004.06,0003.42
2021-11-11 09:15:00,,0827.9,5.00,0.00,22.6,21.8,00.0,31.6,24.4,13.2,0000.0,0009.08,0004.07,0003.43
2021-11-11 09:16:00,,0827.8,5.00,0.00,22.6,21.8,00.0,31.6,24.3,13.2,0000.0,0009.31,0004.07,0003.42
2021-11-11 09:17:00,,0827.9,5.00,0.00,22.6,21.8,00.0,31.6,24.4,13.3,0000.0,0009.44,0004.08,0003.42
2021-11-11 09:18:00,,0827.9,4.99,0.00,22.6,21.8,00.0,31.6,24.4,13.4,0000.0,0009.13,0004.06,0003.42
2021-11-11 09:19:00,,0827.9,5.00,0.00,22.6,21.8,00.0,31.6,24.4,13.4,0000.0,0009.06,0004.06,0003.42
2021-11-11 09:20:00,,0827.8,5.01,0.00,22.6,21.8,00.0,31.6,24.3,13.4,0000.0,0008.76,0004.06,0003.43
2021-11-11 09:21:00,,0827.9,5.00,0.00,22.6,21.8,00.0,31.6,24.3,13.6,0000.0,0008.52,0004.06,0003.44
2021-11-11 09:22:00,,0827.8,5.00,0.00,22.6,21.8,00.0,31.6,24.4,13.7,0000.0,0008.47,0004.08,0003.44
2021-11-11 09:23:00,,0827.7,4.99,0.00,22.6,21.8,00.0,31.6,24.4,13.7,0000.0,0008.29,0004.06,0003.44
2021-11-11 09:24:00,,0827.7,5.01,0.00,22.6,21.8,00.0,31.6,24.4,12.2,0000.0,0008.15,0004.05,0003.44
2021-11-11 09:25:00,,0827.7,4.99,0.00,22.6,21.8,00.0,31.6,24.3,11.9,0000.0,0008.00,0004.05,0003.44
2021-11-11 09:26:00,,0827.7,5.01,0.00,22.6,21.9,00.0,31.6,24.4,13.3,0000.0,0008.28,0004.07,0003.43
2021-11-11 09:27:00,,0827.7,4.99,0.00,22.6,21.9,00.0,31.6,24.4,13.5,0000.0,0008.13,0004.09,0003.44
2021-11-11 09:28:00,,0827.7,5.00,0.00,22.6,21.9,00.0,31.6,24.4,13.6,0000.0,0007.99,0004.07,0003.45
2021-11-11 09:29:00,,0827.7,4.99,0.00,22.6,21.9,00.0,31.6,24.4,13.5,0000.0,0008.52,0004.11,0003.45
2021-11-11 09:30:00,,0827.7,5.02,0.00,22.6,21.9,00.0,31.6,24.4,13.5,0000.0,0009.01,0004.16,0003.46
2021-11-11 09:31:00,,0827.7,5.00,0.00,22.6,21.9,00.0,31.6,24.4,13.5,0000.0,0009.70,0004.17,0003.45
2021-11-11 09:32:00,,0827.7,5.00,0.00,22.6,21.9,00.0,31.6,24.4,13.2,0000.0,0009.94,0004.23,0003.46
2021-11-11 09:33:00,,0827.7,5.00,0.00,22.6,21.9,00.0,31.6,24.4,13.2,0000.0,0010.24,0004.27,0003.47
2021-11-11 09:34:00,,0827.6,5.00,0.00,22.6,21.9,00.0,31.6,24.4,13.5,0000.0,0010.99,0004.31,0003.48
2021-11-11 09:35:00,,0827.6,5.00,0.00,22.7,21.9,00.0,31.6,24.4,13.4,0000.0,0011.24,0004.32,0003.49
2021-11-11 09:36:00,,0827.7,5.00,0.00,22.7,21.9,00.0,31.6,24.4,13.2,0000.0,0011.28,0004.33,0003.49
2021-11-11 09:37:00,,0827.7,5.00,0.00,22.7,21.9,00.0,31.6,24.4,13.3,0000.0,0010.77,0004.34,0003.49
2021-11-11 09:38:00,,0827.7,5.01,0.00,22.7,21.9,00.0,31.6,24.4,13.3,0000.0,0010.87,0004.38,0003.51
2021-11-11 09:39:00,,0827.7,4.99,0.00,22.6,21.9,00.0,31.6,24.4,13.3,0000.0,0011.02,0004.43,0003.52
2021-11-11 09:40:00,,0827.7,5.00,0.00,22.6,21.9,00.0,31.6,24.4,13.4,0000.0,0010.91,0004.45,0003.54
2021-11-11 09:41:00,,0827.7,5.00,0.00,22.6,21.9,00.0,31.6,24.4,13.4,0000.0,0010.62,0004.44,0003.54
2021-11-11 09:42:00,,0827.7,5.00,0.00,22.6,21.9,00.0,31.6,24.4,13.4,0000.0,0010.05,0004.47,0003.55
2021-11-11 09:43:00,,0827.7,5.00,0.00,22.6,21.9,00.0,31.6,24.4,13.4,0000.0,0010.18,0004.51,0003.56
2021-11-11 09:44:00,,0827.7,4.99,0.00,22.6,21.8,00.0,31.6,24.4,13.4,0000.0,0010.67,0004.54,0003.57
2021-11-11 09:45:00,,0827.7,5.01,0.00,22.6,21.8,00.0,31.6,24.4,13.4,0000.0,0010.84,0004.55,0003.57
2021-11-11 09:46:00,,0827.6,4.99,0.00,22.6,21.8,00.0,31.6,24.4,13.4,0000.0,0010.96,0004.59,0003.58
2021-11-11 09:47:00,,0827.6,4.99,0.00,22.6,21.8,00.0,31.6,24.4,13.4,0000.0,0012.14,0004.63,0003.60
2021-11-11 09:48:00,,0827.6,5.00,0.00,22.6,21.8,00.0,31.6,24.4,13.4,0001.1,0012.60,0004.72,0003.62
2021-11-11 09:49:00,,0827.6,5.00,0.00,22.6,21.8,00.0,31.6,24.4,13.4,0000.4,0013.19,0004.74,0003.62
2021-11-11 09:50:00,,0827.6,5.00,0.00,22.6,21.8,00.0,31.6,24.4,13.4,0000.0,0013.62,0004.72,0003.62
2021-11-11 09:51:00,,0827.5,5.01,0.00,22.6,21.8,00.0,31.6,24.4,13.4,0000.0,0013.39,0004.70,0003.61
2021-11-11 09:52:00,,0827.5,5.01,0.00,22.6,21.8,00.0,31.6,24.4,13.3,0000.0,0013.63,0004.69,0003.60
2021-11-11 09:53:00,,0827.5,5.00,0.00,22.6,21.8,00.0,31.6,24.4,13.3,0000.0,0013.99,0004.68,0003.60
2021-11-11 09:54:00,,0827.6,4.99,0.00,22.6,21.8,00.0,31.6,24.4,13.4,0000.0,0013.84,0004.66,0003.58
2021-11-11 09:55:00,,0827.5,5.01,0.00,22.6,21.8,00.0,31.6,24.4,13.3,0000.0,0014.09,0004.62,0003.57
2021-11-11 09:56:00,,0827.5,5.00,0.00,22.6,21.8,00.0,31.6,24.4,13.2,0000.0,0013.85,0004.62,0003.57
2021-11-11 09:57:00,,0827.5,5.00,0.00,22.6,21.8,00.0,31.6,24.4,13.2,0000.0,0013.61,0004.56,0003.57
2021-11-11 09:58:00,,0827.5,5.00,0.00,22.6,21.8,00.0,31.6,24.4,13.2,0000.0,0013.31,0004.55,0003.56
2021-11-11 09:59:00,,0827.5,5.02,0.00,22.6,21.8,00.0,31.6,24.4,13.2,0000.0,0014.13,0004.52,0003.54
